Weather Roundup
Issued by NWS Chicago, IL

Home | Current Version | Previous Version | Graphics & Text | Print | Product List | Glossary On
Versions: 1 2 3 4 5 6 7 8 9 10 11 12 13 14 15 16 17 18 19 20 21 22 23 24 25 26 27 28 29 30 31 32 33 34 35 36 37 38 39 40 41 42 43 44 45 46 47 48 49 50
000
NZUS59 KLOT 271710
HRRLOT

CHICAGO AREA WEATHER ROUNDUP
NATIONAL WEATHER SERVICE CHICAGO/ROMEOVILLE IL
1100 AM CST TUE JAN 27 2015

NOTE: "FAIR" INDICATES FEW OR NO CLOUDS BELOW 12,000 FEET WITH NO
SIGNIFICANT WEATHER AND/OR OBSTRUCTIONS TO VISIBILITY.

* THESE STATIONS ARE NOT UNDER NWS QUALITY CONTROL. THEY ALSO MAY NOT
  REPORT WEATHER SUCH AS PRECIPITATION OR FOG.

ILZ005-006-012>014-019>023-271800-
NORTHEAST ILLINOIS

CITY           SKY/WX    TMP DP  RH WIND       PRES   REMARKS
OHARE          CLOUDY    29  20  69 N8        30.16R WCI  21
MIDWAY         CLOUDY    31  19  61 NE9       30.16R WCI  23
AURORA         CLOUDY    31  24  75 E8        30.16R HAZE    WCI  23
LANSING*       CLOUDY    28  18  65 E8        30.16R WCI  20
JOLIET*        CLOUDY    29  24  81 E6        30.16S WCI  23
WAUKEGAN       CLOUDY    28  18  66 NE10      30.17R WCI  19
DUPAGE AIRPORT CLOUDY    29  21  72 NE9       30.15R WCI  20
WHEELING       CLOUDY    29  19  66 NE9       30.18R WCI  20
KANKAKEE*      CLOUDY    28  24  84 NE6       30.17R WCI  22
MORRIS*        CLOUDY    29  28  96 CALM      30.16R FOG
LEWIS AIRPORT* CLOUDY    29  24  81 NE6       30.16S WCI  23
NORTHERLY IS     N/A     29  19  66 NE9         N/A  WCI  21
$$

WIZ051-052-058>065-066-070>072-271800-
SOUTHEAST WISCONSIN

CITY           SKY/WX    TMP DP  RH WIND       PRES   REMARKS
MILWAUKEE      MOSUNNY   29  15  56 NE12      30.18R WCI  19
KENOSHA*       PTSUNNY   29  20  69 E9        30.17R WCI  20
RACINE*        SUNNY     30  16  56 NE9       30.19R WCI  22
BURLINGTON     CLOUDY    27  19  72 NE7       30.17R WCI  20
WAUKESHA       PTSUNNY   27  18  69 E9        30.18R WCI  17
WEST BEND      CLOUDY    28  16  59 NE8       30.18R WCI  20
$$

INZ001>003-010>013-019-020-271800-
NORTHWEST INDIANA

CITY           SKY/WX    TMP DP  RH WIND       PRES   REMARKS
GARY*          PTSUNNY   30  14  51 E7        30.17R WCI  23
MICHIGAN CITY* NOT AVBL
RENSSELAER*    NOT AVBL
VALPARAISO     MOSUNNY   27  11  51 NE6       30.15R WCI  20
$$

LMZ740>746-271800-
SOUTHERN LAKE MICHIGAN

STATION/POSITION TIME  SKY/WX   TEMP WIND        PRES    VSBY
                                AIR  DIR/SP/G
                 (UTC)          (F)  (DEG/KT/KT) (MB)    (MI)
HARRISON CRIB    1700            28   60/  9/ 10   N/A
BURNHAM HARBOR   1700            29   50/  8/ 12   N/A
CALUMET HARBOR   1700            28   50/  7/ 10   N/A
BURNS HARBOR     NOT AVBL
MICHIGAN CITY    1700            26   10/  6/  7   N/A
$$

ABBREVIATIONS USED IN REMARKS
   TC - TEMPERATURE IN CELSIUS
  WCI - WIND CHILL INDEX
   HX - HEAT INDEX
  VSB - VISIBILITY
$$


USA.gov is the U.S. government's official web portal to all federal, state and local government web resources and services.